[[{"header":{"parameterUnit":"m.s-1","parameterCategory":1,"la1":30.2991,"la2":30.254,"lo1":-89.0895,"lo2":-89.0444,"dy":0.0017,"dx":0.0017,"nx":28,"ny":28,"refTime":"2024-05-03T21:00:00:Z","depth":0,"parameterNumber":2,"parameterNumberName":"U-component_of_WINDS"},"data":[0,0,0,0,0,0,0,0,0,0,0,0,0,0,0,0,0,0,0,0,0,0,0,0,0,0,0,0,0,0,0,0,0,0,0,0,0,0,0,0,0,0,0,0,0,0,0,0,0,0,0,0,0,0,0,0,0,0,-3.0469,-3.0469,0,-3.0461,-3.0461,-3.0461,-3.0409,-3.0408,-3.0406,-3.0405,-3.0396,-3.0397,-3.0398,0,0,0,0,0,0,0,0,0,0,0,0,0,-3.044,-3.0441,-3.0469,-3.0469,-3.0469,-3.0461,-3.0461,-3.0461,-3.0409,-3.0408,-3.0406,-3.0405,-3.0396,-3.0397,-3.0398,0,0,0,0,0,0,0,0,0,0,0,0,0,-3.0445,-3.0441,-3.0469,-3.0442,-3.0439,-3.0461,-3.0461,-3.0461,-3.0409,-3.0407,-3.0406,-3.0404,-3.0396,-3.0397,-3.0399,-3.0445,0,0,-3.0403,-3.0403,0,0,0,0,0,0,0,0,-3.0444,-3.0446,-3.0446,-3.0444,-3.0441,-3.0434,-3.0448,-3.0455,-3.041,-3.0421,-3.0405,-3.0403,-3.041,-3.041,-3.0413,-3.0445,-3.0444,-3.0403,-3.0404,-3.0404,-3.0405,0,0,0,0,0,0,0,-3.0444,-3.0446,-3.0466,-3.0446,-3.0443,-3.0431,-3.0429,-3.0449,-3.0426,-3.042,-3.0416,-3.0416,-3.0409,-3.0412,-3.0413,-3.0444,-3.0403,-3.0404,-3.0405,-3.0406,-3.0516,-3.0518,0,0,0,0,0,0,-3.0448,-3.0446,-3.0466,-3.0465,-3.0438,-3.0433,-3.0431,-3.0438,-3.0426,-3.0422,-3.0417,-3.0413,-3.041,-3.0411,-3.0412,-3.0466,-3.0404,-3.0406,-3.0407,-3.0514,-3.0516,-3.0519,0,0,0,0,0,0,-3.0447,-3.045,-3.0466,-3.0455,-3.0456,-3.0435,-3.0444,-3.0439,-3.0442,-3.0424,-3.042,-3.0425,-3.0409,-3.041,-3.0438,-3.0465,-3.0406,-3.0408,-3.0511,-3.0515,-3.0518,-3.0576,0,0,0,0,0,0,-3.0447,-3.045,-3.0467,-3.0455,-3.0457,-3.0492,-3.0445,-3.044,-3.0445,-3.0439,-3.043,-3.0426,-3.0408,-3.0436,-3.0439,-3.0466,-3.0409,-3.0509,-3.0513,-3.0517,-3.0571,-3.058,-3.0588,0,0,0,0,0,-3.0446,-3.0483,-3.0468,-3.0471,-3.0477,-3.0493,-3.0494,-3.0472,-3.0447,-3.0464,-3.0453,-3.0427,-3.0463,-3.0439,-3.0442,-3.047,-3.0507,-3.0512,-3.0516,-3.0567,-3.0578,-3.0588,0,0,0,0,0,0,-3.0497,-3.0481,-3.0464,-3.0498,-3.0498,-3.0484,-3.0505,-3.0484,-3.049,-3.0484,-3.0457,-3.0455,-3.0487,-3.0482,-3.0456,-3.0516,-3.048,-3.0486,-3.0518,-3.0528,-3.0537,-3.0537,-3.041,0,0,0,0,0,-3.0512,-3.0527,-3.0512,-3.0544,-3.0545,-3.0525,-3.0531,-3.0515,-3.0513,-3.0512,-3.0503,-3.0502,-3.0513,-3.0521,-3.053,-3.0571,-3.0569,-3.0592,-3.0601,-3.0608,-3.0612,-3.0635,-3.0646,-3.0534,-3.0534,-3.0534,0,0,-3.0544,-3.0537,-3.0547,-3.0554,-3.0551,-3.0567,-3.0525,-3.0543,-3.0555,-3.0514,-3.054,-3.0534,-3.0532,-3.0567,-3.0582,-3.0563,-3.0643,-3.0614,-3.062,-3.062,-3.0641,-3.0652,-3.0661,-3.0537,-3.0537,-3.0536,0,0,-3.0609,-3.0605,-3.0632,-3.0631,-3.0629,-3.0616,-3.0623,-3.0614,-3.0608,-3.0634,-3.0605,-3.0619,-3.0639,-3.0638,-3.0641,-3.0711,-3.0687,-3.0715,-3.0759,-3.0781,-3.079,-3.0798,-3.0823,-3.0832,-3.072,-3.072,-3.072,0,-3.0648,-3.0671,-3.0648,-3.0669,-3.0673,-3.064,-3.0667,-3.0667,-3.0668,-3.0672,-3.0652,-3.0677,-3.0673,-3.0708,-3.0726,-3.0729,-3.0736,-3.0714,-3.0791,-3.0798,-3.0805,-3.0828,-3.0838,-3.0723,-3.0723,-3.0723,-3.0722,0,-3.072,-3.0736,-3.0758,-3.0761,-3.0768,-3.0792,-3.0774,-3.0784,-3.0768,-3.0758,-3.0786,-3.0781,-3.0789,-3.0797,-3.078,-3.083,-3.0819,-3.0796,-3.0758,-3.0819,-3.0841,-3.085,-3.0728,-3.0727,-3.0726,-3.0725,0,0,-3.0813,-3.0806,-3.0814,-3.0816,-3.0812,-3.0825,-3.0849,-3.0858,-3.0867,-3.087,-3.0889,-3.0908,-3.0887,-3.089,-3.0875,-3.0895,-3.0951,-3.0868,-3.0868,-3.0884,-3.1007,-3.1024,-3.1034,-3.0936,-3.0938,-3.0939,-3.1007,0,-3.0876,-3.0915,-3.0897,-3.0939,-3.0954,-3.0925,-3.0946,-3.0946,-3.0939,-3.0951,-3.0943,-3.0957,-3.0928,-3.093,-3.0949,-3.094,-3.0975,-3.0935,-3.0954,-3.0955,-3.0954,-3.1045,-3.1063,-3.1126,-3.1015,-3.1016,-3.1017,0,-3.0953,-3.096,-3.1004,-3.1,-3.1006,-3.1024,-3.1032,-3.1045,-3.1046,-3.104,-3.1045,-3.1026,-3.1049,-3.1015,-3.1048,-3.1021,-3.1029,-3.1026,-3.1028,-3.1027,-3.0988,-3.1047,-3.1146,-3.1155,-3.1031,-3.103,-3.1029,0,-3.1017,-3.1038,-3.1067,-3.1069,-3.1065,-3.1079,-3.1078,-3.1078,-3.1085,-3.1093,-3.1098,-3.1108,-3.1113,-3.1122,-3.1107,-3.1083,-3.1142,-3.1106,-3.1137,-3.1138,-3.1149,-3.1148,-3.125,-3.1156,-3.1156,-3.1156,-3.1156,0,-3.1087,-3.1115,-3.1095,-3.1113,-3.1144,-3.1125,-3.1156,-3.1152,-3.1152,-3.1169,-3.1145,-3.1161,-3.114,-3.1155,-3.1143,-3.1173,-3.1176,-3.1171,-3.1167,-3.1172,-3.1173,-3.1175,-3.117,-3.1158,-3.1158,-3.1157,-3.1157,0,-3.1162,-3.1151,-3.118,-3.1175,-3.1175,-3.1198,-3.1194,-3.1211,-3.1203,-3.1225,-3.1229,-3.1217,-3.1233,-3.122,-3.1235,-3.1228,-3.1267,-3.1257,-3.1266,-3.1263,-3.1295,-3.1292,-3.1401,-3.1414,-3.1313,-3.1314,-3.1315,0,-3.1208,-3.1228,-3.1227,-3.1237,-3.1238,-3.1254,-3.1262,-3.1245,-3.1255,-3.1259,-3.1276,-3.1291,-3.1301,-3.133,-3.1322,-3.1335,-3.1325,-3.1362,-3.1326,-3.1332,-3.1325,-3.1324,-3.1326,-3.1369,-3.137,-3.1371,-3.1372,0,-3.1289,-3.1283,-3.1296,-3.1307,-3.1318,-3.1326,-3.1332,-3.1342,-3.1325,-3.1337,-3.1355,-3.1363,-3.1381,-3.1396,-3.1407,-3.1406,-3.1387,-3.1384,-3.1392,-3.1396,-3.1401,-3.1399,-3.1285,-3.1381,-3.138,-3.1379,-3.1379,-3.1378,-3.135,-3.1368,-3.137,-3.1386,-3.1389,-3.1397,-3.1413,-3.1408,-3.1422,-3.1435,-3.1425,-3.1446,-3.1449,-3.1462,-3.1464,-3.1481,-3.1465,-3.1476,-3.1479,-3.1482,-3.1486,-3.14,-3.1483,-3.1482,-3.1482,-3.1482,-3.1482,0,-3.143,-3.1431,-3.1446,-3.1456,-3.1469,-3.1451,-3.1458,-3.147,-3.1489,-3.1494,-3.1506,-3.1527,-3.1542,-3.1538,-3.1552,-3.1566,-3.1558,-3.157,-3.1568,-3.1569,-3.1499,-3.1491,-3.1577,-3.1577,-3.1577,-3.1577,-3.1577,-3.1577,-3.1473,-3.1503,-3.1498,-3.1529,-3.153,-3.1551,-3.1556,-3.1563,-3.1567,-3.1592,-3.1605,-3.1603,-3.1604,-3.1619,-3.1633,-3.1631,-3.1637,-3.1653,-3.1648,-3.1583,-3.1574,-3.1564,-3.1556,-3.1655,-3.1655,-3.1716,-3.1717,-3.1717]},{"header":{"parameterUnit":"m.s-1","parameterCategory":1,"la1":30.2991,"la2":30.254,"lo1":-89.0895,"lo2":-89.0444,"dy":0.0017,"dx":0.0017,"nx":28,"ny":28,"refTime":"2024-05-03T21:00:00:Z","depth":0,"parameterNumber":3,"parameterNumberName":"V-component_of_WINDS"},"data":[0,0,0,0,0,0,0,0,0,0,0,0,0,0,0,0,0,0,0,0,0,0,0,0,0,0,0,0,0,0,0,0,0,0,0,0,0,0,0,0,0,0,0,0,0,0,0,0,0,0,0,0,0,0,0,0,0,0,2.7681,2.7681,0,2.7686,2.7686,2.7686,2.771,2.771,2.7711,2.7711,2.7712,2.7712,2.7711,0,0,0,0,0,0,0,0,0,0,0,0,0,2.7688,2.7688,2.7681,2.7681,2.7681,2.7686,2.7686,2.7686,2.7709,2.771,2.7711,2.7711,2.7713,2.7712,2.7711,0,0,0,0,0,0,0,0,0,0,0,0,0,2.7688,2.7688,2.7681,2.7693,2.7694,2.7686,2.7686,2.7686,2.7709,2.771,2.7711,2.7712,2.7713,2.7712,2.7711,2.769,0,0,2.7709,2.7709,0,0,0,0,0,0,0,0,2.7688,2.7688,2.7691,2.7692,2.7694,2.7698,2.7689,2.7687,2.7709,2.7703,2.7711,2.7712,2.7707,2.7706,2.7705,2.769,2.769,2.7709,2.7709,2.7708,2.7708,0,0,0,0,0,0,0,2.7688,2.7688,2.7683,2.7691,2.7693,2.7698,2.7699,2.7689,2.77,2.7704,2.7706,2.7706,2.7707,2.7706,2.7706,2.769,2.7709,2.7708,2.7708,2.7708,2.7659,2.7659,0,0,0,0,0,0,2.7687,2.7688,2.7682,2.7683,2.7693,2.7697,2.7698,2.7696,2.77,2.7702,2.7706,2.7707,2.7707,2.7706,2.7706,2.7682,2.7708,2.7708,2.7707,2.766,2.7659,2.7658,0,0,0,0,0,0,2.7687,2.7686,2.7682,2.7686,2.7686,2.7696,2.7693,2.7695,2.7694,2.7702,2.7703,2.7702,2.7708,2.7707,2.7695,2.7683,2.7707,2.7707,2.7661,2.766,2.7659,2.7635,0,0,0,0,0,0,2.7687,2.7686,2.7678,2.7685,2.7685,2.7671,2.7692,2.7695,2.7693,2.7696,2.7699,2.77,2.7708,2.7695,2.7694,2.7682,2.7706,2.7662,2.7661,2.7659,2.7637,2.7633,2.7629,0,0,0,0,0,2.7687,2.767,2.7678,2.7677,2.7676,2.7671,2.767,2.7681,2.7692,2.7684,2.769,2.77,2.7685,2.7694,2.7692,2.768,2.7663,2.7661,2.7659,2.7638,2.7633,2.763,0,0,0,0,0,0,2.7659,2.7671,2.768,2.7664,2.7667,2.7675,2.7665,2.7676,2.7673,2.7675,2.7688,2.7688,2.7674,2.7676,2.7686,2.7661,2.7676,2.7673,2.766,2.7656,2.7652,2.7652,2.7705,0,0,0,0,0,2.7651,2.7647,2.7657,2.7642,2.7643,2.7654,2.7652,2.766,2.7662,2.7663,2.7667,2.7668,2.7663,2.766,2.7656,2.7637,2.7639,2.7628,2.7625,2.7622,2.762,2.7612,2.7607,2.7652,2.7652,2.7652,0,0,2.7634,2.7641,2.7636,2.7637,2.764,2.7634,2.7654,2.7647,2.7643,2.7661,2.7651,2.7654,2.7655,2.7641,2.7634,2.7642,2.7608,2.7619,2.7617,2.7616,2.7609,2.7605,2.7601,2.7651,2.7651,2.7651,0,0,2.7601,2.7605,2.7595,2.7598,2.7603,2.761,2.7608,2.7615,2.7618,2.7608,2.7622,2.7618,2.7609,2.761,2.761,2.758,2.759,2.7579,2.756,2.7552,2.7549,2.7545,2.7536,2.7532,2.7576,2.7576,2.7576,0,2.7579,2.7573,2.7587,2.758,2.7581,2.7599,2.7588,2.759,2.7592,2.7592,2.7601,2.7592,2.7594,2.7581,2.7574,2.7573,2.7571,2.7578,2.7548,2.7545,2.7543,2.7534,2.753,2.7575,2.7575,2.7575,2.7575,0,2.7547,2.7542,2.7533,2.7538,2.7537,2.7527,2.754,2.7537,2.7547,2.7553,2.7544,2.7547,2.7546,2.7543,2.755,2.7531,2.7536,2.7546,2.7561,2.7537,2.7529,2.7525,2.7573,2.7573,2.7574,2.7574,0,0,2.7494,2.7509,2.7505,2.7509,2.7516,2.7513,2.7505,2.7505,2.7503,2.7505,2.7499,2.7493,2.7503,2.7503,2.7511,2.7504,2.7482,2.7516,2.7516,2.751,2.7462,2.7455,2.745,2.7489,2.7489,2.7488,2.7462,0,2.7463,2.7452,2.7466,2.7452,2.7449,2.7467,2.7461,2.7465,2.7471,2.7469,2.7476,2.7472,2.7486,2.7486,2.748,2.7486,2.7473,2.7488,2.7484,2.7483,2.7483,2.7446,2.7437,2.7413,2.7459,2.7459,2.7458,0,2.7425,2.7428,2.7414,2.7426,2.7425,2.7419,2.7421,2.7419,2.7424,2.7429,2.743,2.7441,2.7435,2.745,2.7441,2.7451,2.745,2.7453,2.7453,2.7452,2.7469,2.7445,2.7405,2.7401,2.7453,2.7454,2.7454,0,2.7389,2.7389,2.7382,2.7384,2.7396,2.7392,2.7397,2.7403,2.7403,2.7405,2.7405,2.7405,2.7405,2.7405,2.7416,2.7426,2.7406,2.7422,2.7411,2.741,2.7405,2.7405,2.7364,2.7404,2.7404,2.7404,2.7404,0,2.7354,2.7344,2.7366,2.7361,2.7352,2.7368,2.7358,2.7365,2.7371,2.7368,2.7383,2.738,2.7394,2.7392,2.7401,2.7393,2.7392,2.7396,2.7399,2.7395,2.7395,2.7394,2.7397,2.7403,2.7403,2.7404,2.7404,0,2.7311,2.7325,2.7319,2.7332,2.7336,2.7328,2.734,2.7336,2.7345,2.734,2.734,2.7353,2.7352,2.7364,2.7363,2.7369,2.7357,2.7362,2.7356,2.7358,2.7346,2.7347,2.7304,2.7299,2.7341,2.7341,2.734,0,2.7288,2.7282,2.7296,2.7296,2.7301,2.73,2.7301,2.7317,2.7317,2.7324,2.732,2.732,2.7321,2.7318,2.7327,2.7328,2.7333,2.7318,2.7333,2.733,2.7334,2.7334,2.7334,2.7314,2.7314,2.7314,2.7313,0,2.7244,2.7253,2.7254,2.7259,2.7261,2.7264,2.7269,2.7268,2.7286,2.7285,2.7285,2.7286,2.7288,2.7289,2.7292,2.7296,2.7307,2.7309,2.7306,2.7302,2.73,2.7302,2.7348,2.7309,2.731,2.731,2.731,2.731,2.7211,2.7208,2.7218,2.722,2.7226,2.7231,2.7229,2.7239,2.7239,2.7243,2.7253,2.7251,2.7259,2.7264,2.7268,2.7267,2.7274,2.727,2.7269,2.7268,2.7266,2.73,2.7267,2.7267,2.7267,2.7267,2.7267,0,2.717,2.7178,2.718,2.7188,2.719,2.7203,2.721,2.721,2.7209,2.7216,2.7218,2.7219,2.722,2.723,2.7232,2.723,2.7235,2.723,2.723,2.7231,2.7259,2.7261,2.7225,2.7225,2.7225,2.7225,2.7225,2.7225,2.7148,2.7144,2.7153,2.7152,2.716,2.7161,2.7164,2.7169,2.7174,2.7175,2.7177,2.7185,2.7193,2.7197,2.7198,2.7201,2.7202,2.7194,2.7199,2.7225,2.7229,2.7233,2.7235,2.7194,2.7194,2.7172,2.7171,2.7171]}]]